When you browse on this site, cookies collect data to enhance your experience and personalize the content and advertising you see.
Visit our Privacy Policy to learn more. By continuing to use the site, you agree to this use of cookies and data.
  • In Hungary
  • List of Countries
  • For 7 days
  • Water Temperature
  • Weather Map
  • News
  • Weather Widgets
  • user-avatar
    Login

    Hourly Weather Jhansi

    Today, 19 November, Tuesday

    Time Temperature Precipitation Wind Pressure Humidity
    00:00 +23°C° 0 mm 1 mps 740 mmHg 53%
    01:00 +20°C° 0 mm 0 mps 740 mmHg 54%
    02:00 +20°C° 0 mm 0 mps 740 mmHg 55%
    03:00 +19°C° 0 mm 0 mps 740 mmHg 56%
    04:00 +21°C° 0 mm 1 mps 740 mmHg 56%
    05:00 +21°C° 0 mm 1 mps 740 mmHg 62%
    06:00 +21°C° 0 mm 1 mps 740 mmHg 58%
    07:00 +22°C° 0 mm 1 mps 741 mmHg 55%
    08:00 +23°C° 0 mm 1 mps 742 mmHg 52%
    09:00 +25°C° 0 mm 1 mps 741 mmHg 47%
    10:00 +27°C° 0 mm 1 mps 741 mmHg 41%
    11:00 +28°C° 0 mm 1 mps 741 mmHg 36%
    12:00 +29°C° 0 mm 1 mps 740 mmHg 35%
    13:00 +29°C° 0 mm 2 mps 739 mmHg 33%
    14:00 +30°C° 0 mm 3 mps 739 mmHg 32%
    15:00 +29°C° 0 mm 2 mps 739 mmHg 34%
    16:00 +28°C° 0 mm 2 mps 739 mmHg 37%
    17:00 +26°C° 0 mm 1 mps 739 mmHg 39%
    18:00 +26°C° 0 mm 1 mps 739 mmHg 41%
    19:00 +25°C° 0 mm 1 mps 740 mmHg 43%
    20:00 +24°C° 0 mm 1 mps 740 mmHg 44%
    21:00 +22°C° 0 mm 0 mps 740 mmHg 45%
    22:00 +21°C° 0 mm 0 mps 740 mmHg 47%
    23:00 +21°C° 0 mm 0 mps 740 mmHg 48%

    Tomorrow, 20 November, Wednesday

    Time Temperature Precipitation Wind Pressure Humidity
    00:00 +20°C° 0 mm 0 mps 740 mmHg 49%
    01:00 +20°C° 0 mm 0 mps 739 mmHg 50%
    02:00 +20°C° 0 mm 0 mps 739 mmHg 51%
    03:00 +19°C° 0 mm 0 mps 739 mmHg 52%
    04:00 +19°C° 0 mm 0 mps 739 mmHg 53%
    05:00 +19°C° 0 mm 0 mps 739 mmHg 54%
    06:00 +20°C° 0 mm 0 mps 740 mmHg 51%
    07:00 +21°C° 0 mm 0 mps 740 mmHg 49%
    08:00 +24°C° 0 mm 1 mps 741 mmHg 46%
    09:00 +26°C° 0 mm 1 mps 741 mmHg 41%
    10:00 +25°C° 0 mm 0 mps 741 mmHg 36%
    11:00 +27°C° 0 mm 0 mps 741 mmHg 31%
    12:00 +28°C° 0 mm 0 mps 740 mmHg 29%
    13:00 +28°C° 0 mm 0 mps 740 mmHg 28%
    14:00 +29°C° 0 mm 0 mps 739 mmHg 26%
    15:00 +27°C° 0 mm 0 mps 739 mmHg 28%
    16:00 +26°C° 0 mm 0 mps 739 mmHg 29%
    17:00 +25°C° 0 mm 0 mps 739 mmHg 31%
    18:00 +26°C° 0 mm 1 mps 739 mmHg 32%
    19:00 +26°C° 0 mm 1 mps 740 mmHg 32%
    20:00 +25°C° 0 mm 2 mps 741 mmHg 33%
    21:00 +24°C° 0 mm 2 mps 741 mmHg 34%
    22:00 +24°C° 0 mm 2 mps 740 mmHg 35%
    23:00 +23°C° 0 mm 2 mps 740 mmHg 36%

    Day after tomorrow, 21 November, Thursday

    Time Temperature Precipitation Wind Pressure Humidity
    00:00 +23°C° 0 mm 2 mps 740 mmHg 37%
    01:00 +21°C° 0 mm 2 mps 740 mmHg 38%
    02:00 +22°C° 0 mm 1 mps 740 mmHg 39%
    03:00 +21°C° 0 mm 1 mps 740 mmHg 39%
    04:00 +21°C° 0 mm 1 mps 740 mmHg 40%
    05:00 +21°C° 0 mm 1 mps 740 mmHg 41%
    06:00 +22°C° 0 mm 1 mps 741 mmHg 39%
    07:00 +23°C° 0 mm 1 mps 741 mmHg 38%
    08:00 +24°C° 0 mm 1 mps 742 mmHg 36%
    09:00 +26°C° 0 mm 1 mps 742 mmHg 33%
    10:00 +27°C° 0 mm 1 mps 742 mmHg 30%
    11:00 +29°C° 0 mm 2 mps 742 mmHg 26%
    12:00 +30°C° 0 mm 2 mps 741 mmHg 25%
    13:00 +30°C° 0 mm 1 mps 740 mmHg 24%
    14:00 +31°C° 0 mm 1 mps 740 mmHg 23%
    15:00 +30°C° 0 mm 1 mps 740 mmHg 25%
    16:00 +28°C° 0 mm 1 mps 740 mmHg 27%
    17:00 +27°C° 0 mm 1 mps 740 mmHg 29%
    18:00 +26°C° 0 mm 1 mps 740 mmHg 30%
    19:00 +25°C° 0 mm 2 mps 741 mmHg 31%
    20:00 +24°C° 0 mm 2 mps 742 mmHg 33%
    21:00 +24°C° 0 mm 2 mps 741 mmHg 33%
    22:00 +23°C° 0 mm 1 mps 741 mmHg 34%
    23:00 +23°C° 0 mm 1 mps 741 mmHg 35%

    22 November, Friday

    Time Temperature Precipitation Wind Pressure Humidity
    00:00 +22°C° 0 mm 1 mps 741 mmHg 36%
    01:00 +22°C° 0 mm 1 mps 741 mmHg 37%
    02:00 +21°C° 0 mm 1 mps 741 mmHg 39%
    03:00 +21°C° 0 mm 1 mps 741 mmHg 39%
    04:00 +21°C° 0 mm 1 mps 741 mmHg 40%
    05:00 +20°C° 0 mm 1 mps 741 mmHg 41%
    06:00 +21°C° 0 mm 1 mps 741 mmHg 40%
    07:00 +22°C° 0 mm 1 mps 742 mmHg 39%
    08:00 +23°C° 0 mm 1 mps 742 mmHg 38%
    09:00 +25°C° 0 mm 1 mps 742 mmHg 34%
    10:00 +27°C° 0 mm 1 mps 742 mmHg 31%
    11:00 +29°C° 0 mm 1 mps 742 mmHg 27%
    12:00 +30°C° 0 mm 1 mps 742 mmHg 26%
    13:00 +30°C° 0 mm 1 mps 741 mmHg 24%
    14:00 +31°C° 0 mm 1 mps 740 mmHg 23%
    15:00 +29°C° 0 mm 1 mps 740 mmHg 25%
    16:00 +28°C° 0 mm 1 mps 740 mmHg 27%
    17:00 +27°C° 0 mm 1 mps 740 mmHg 30%
    18:00 +26°C° 0 mm 1 mps 740 mmHg 31%
    19:00 +25°C° 0 mm 1 mps 741 mmHg 32%
    20:00 +25°C° 0 mm 1 mps 741 mmHg 33%
    21:00 +24°C° 0 mm 1 mps 741 mmHg 34%
    22:00 +24°C° 0 mm 1 mps 741 mmHg 36%
    23:00 +21°C° 0 mm 0 mps 741 mmHg 37%

    23 November, Saturday

    Time Temperature Precipitation Wind Pressure Humidity
    00:00 +23°C° 0 mm 1 mps 741 mmHg 37%
    01:00 +22°C° 0 mm 1 mps 740 mmHg 38%
    02:00 +22°C° 0 mm 1 mps 740 mmHg 38%
    03:00 +22°C° 0 mm 1 mps 740 mmHg 39%
    04:00 +21°C° 0 mm 1 mps 740 mmHg 40%
    05:00 +21°C° 0 mm 1 mps 740 mmHg 40%
    06:00 +22°C° 0 mm 1 mps 741 mmHg 39%
    07:00 +23°C° 0 mm 1 mps 741 mmHg 39%
    08:00 +24°C° 0 mm 1 mps 742 mmHg 38%
    09:00 +25°C° 0 mm 1 mps 742 mmHg 35%
    10:00 +27°C° 0 mm 1 mps 742 mmHg 32%
    11:00 +29°C° 0 mm 1 mps 742 mmHg 29%
    12:00 +29°C° 0 mm 1 mps 741 mmHg 28%
    13:00 +30°C° 0 mm 1 mps 741 mmHg 27%
    14:00 +30°C° 0 mm 1 mps 740 mmHg 26%
    15:00 +29°C° 0 mm 1 mps 740 mmHg 28%
    16:00 +28°C° 0 mm 1 mps 740 mmHg 31%
    17:00 +27°C° 0 mm 1 mps 740 mmHg 33%
    18:00 +24°C° 0 mm 0 mps 740 mmHg 34%
    19:00 +24°C° 0 mm 0 mps 740 mmHg 35%
    20:00 +23°C° 0 mm 0 mps 741 mmHg 36%
    21:00 +23°C° 0 mm 0 mps 741 mmHg 36%
    22:00 +25°C° 0 mm 1 mps 741 mmHg 37%
    23:00 +24°C° 0 mm 1 mps 741 mmHg 37%

    24 November, Sunday

    Time Temperature Precipitation Wind Pressure Humidity
    00:00 +24°C° 0 mm 1 mps 740 mmHg 38%
    01:00 +24°C° 0 mm 1 mps 740 mmHg 39%
    02:00 +24°C° 0 mm 2 mps 739 mmHg 40%
    03:00 +23°C° 0 mm 1 mps 740 mmHg 41%
    04:00 +23°C° 0 mm 1 mps 740 mmHg 43%
    05:00 +23°C° 0 mm 1 mps 740 mmHg 44%
    06:00 +23°C° 0 mm 1 mps 740 mmHg 44%
    07:00 +24°C° 0 mm 1 mps 741 mmHg 44%
    08:00 +25°C° 0 mm 1 mps 741 mmHg 45%
    09:00 +26°C° 0 mm 1 mps 741 mmHg 40%
    10:00 +28°C° 0 mm 2 mps 741 mmHg 36%
    11:00 +29°C° 0 mm 2 mps 741 mmHg 32%
    12:00 +30°C° 0 mm 2 mps 740 mmHg 31%
    13:00 +30°C° 0 mm 2 mps 740 mmHg 30%
    14:00 +30°C° 0 mm 2 mps 739 mmHg 30%
    15:00 +29°C° 0 mm 1 mps 739 mmHg 32%
    16:00 +28°C° 0 mm 1 mps 739 mmHg 35%
    17:00 +25°C° 0 mm 0 mps 739 mmHg 37%
    18:00 +25°C° 0 mm 0 mps 739 mmHg 38%
    19:00 +25°C° 0 mm 0 mps 740 mmHg 39%
    20:00 +24°C° 0 mm 0 mps 740 mmHg 39%
    21:00 +24°C° 0 mm 0 mps 740 mmHg 40%
    22:00 +24°C° 0 mm 0 mps 740 mmHg 41%
    23:00 +25°C° 0 mm 1 mps 740 mmHg 41%
    Show more